DW7061 Weather Reports


Display with metric or nautical units.
time (UTC)temp
F
wind
direction
speed
MPH
gust
MPH
rain 1hr
in
rain 24hr
in
rain mn
in
humidity
%
barometer
mb
20210301063523 33 0.0 1.0 0.00 0.01 0.00 97 1010.5
20210301062603 32 0.0 2.0 0.00 0.01 0.00 97 1010.5
20210301061527 32 45 1.0 3.0 0.00 0.01 0.00 97 1010.4
20210301060523 32 45 1.0 3.0 0.00 0.01 0.00 97 1010.4
20210301055533 32 45 1.0 4.0 0.00 0.01 0.00 96 1011.2
20210301054539 32 45 1.0 4.0 0.01 0.01 0.00 96 1011.5
20210301053524 32 45 1.0 3.0 0.01 0.01 0.00 96 1011.9
20210301052638 32 0.0 3.0 0.01 0.01 0.00 96 1012.7
20210301051530 32 0.0 2.0 0.01 0.01 0.00 96 1012.6
20210301050540 32 135 1.0 6.0 0.01 0.01 0.00 96 1012.9
20210301045520 32 68 1.0 6.0 0.01 0.01 0.01 95 1012.4
20210301044528 32 45 2.0 7.0 0.00 0.00 0.00 95 1012.6
20210301043523 33 248 1.0 3.0 0.00 0.00 0.00 94 1013.5
20210301042556 33 0.0 2.0 0.00 0.00 0.00 94 1013.9
20210301041523 33 135 1.0 4.0 0.00 0.00 0.00 93 1014.2
20210301040535 33 113 2.0 6.0 0.00 0.00 0.00 92 1014.2
20210301035518 34 90 2.0 4.0 0.00 0.00 0.00 89 1014.6
20210301034520 34 90 1.0 6.0 0.00 0.00 0.00 86 1014.3
20210301033533 34 113 2.0 5.0 0.00 0.00 0.00 84 1014.4
20210301032621 35 90 1.0 8.0 0.00 0.00 0.00 83 1014.8
20210301031517 35 90 1.0 6.0 0.00 0.00 0.00 82 1015.2
20210301030529 35 68 1.0 4.0 0.00 0.00 0.00 82 1015.4
20210301025524 35 68 1.0 4.0 0.00 0.00 0.00 82 1015.2
20210301024522 35 0.0 1.0 0.00 0.00 0.00 82 1015.6
20210301023521 36 0.0 2.0 0.00 0.00 0.00 82 1015.6
20210301022714 36 90 1.0 5.0 0.00 0.00 0.00 82 1015.9
20210301021544 36 0.0 2.0 0.00 0.00 0.00 81 1016.2
20210301020523 36 0.0 3.0 0.00 0.00 0.00 81 1016.3
20210301015523 36 0.0 1.0 0.00 0.00 0.00 81 1016.3
20210301014520 36 0.0 3.0 0.00 0.00 0.00 81 1016.7
20210301013518 36 0.0 1.0 0.00 0.00 0.00 80 1016.9
20210301012541 36 0.0 1.0 0.00 0.00 0.00 80 1016.9
20210301011538 36 0.0 1.0 0.00 0.00 0.00 80 1017.2
20210301010543 36 0.0 2.0 0.00 0.00 0.00 79 1016.4
20210301005529 36 0.0 2.0 0.00 0.00 0.00 79 1016.8
20210301004526 36 0.0 1.0 0.00 0.00 0.00 79 1017.4
20210301003524 36 0.0 2.0 0.00 0.00 0.00 80 1017.8
20210301002644 36 0.0 0.0 0.00 0.00 0.00 79 1017.9
20210301001523 37 0.0 1.0 0.00 0.00 0.00 78 1017.6
20210301000528 37 0.0 1.0 0.00 0.00 0.00 78 1017.3
20210228235531 37 0.0 1.0 0.00 0.00 0.00 78 1017.2
20210228234522 37 0.0 4.0 0.00 0.00 0.00 78 1017.0
20210228233521 37 45 1.0 4.0 0.00 0.00 0.00 77 1017.0
20210228232642 37 45 1.0 4.0 0.00 0.00 0.00 77 1017.1
20210228231545 37 45 1.0 4.0 0.00 0.00 0.00 77 1017.1
20210228230529 37 90 1.0 4.0 0.00 0.00 0.00 77 1017.5
20210228225519 37 90 1.0 3.0 0.00 0.00 0.00 77 1017.5
20210228224532 37 90 1.0 6.0 0.00 0.00 0.00 78 1017.9
20210228223531 37 68 1.0 4.0 0.00 0.00 0.00 76 1018.2
20210228222546 37 45 1.0 3.0 0.00 0.00 0.00 77 1018.2
20210228221524 38 0.0 1.0 0.00 0.00 0.00 77 1018.4
20210228220523 38 0.0 1.0 0.00 0.00 0.00 77 1018.7
20210228215520 38 0.0 1.0 0.00 0.00 0.00 77 1019.0
20210228214521 38 0.0 1.0 0.00 0.00 0.00 77 1019.2
20210228213522 38 0.0 2.0 0.00 0.00 0.00 76 1019.4
20210228212603 38 0.0 4.0 0.00 0.00 0.00 76 1019.5
20210228211527 38 0.0 2.0 0.00 0.00 0.00 76 1019.7
20210228210523 39 0.0 3.0 0.00 0.00 0.00 76 1019.9
20210228205522 39 0.0 5.0 0.00 0.00 0.00 76 1019.9
20210228204521 39 0.0 1.0 0.00 0.01 0.00 76 1020.0
20210228203521 39 0.0 1.0 0.00 0.01 0.00 76 1020.3
20210228202539 40 0.0 1.0 0.00 0.01 0.00 75 1020.7
20210228201530 40 0.0 1.0 0.00 0.01 0.00 75 1020.9
20210228200519 40 0.0 0.0 0.00 0.02 0.00 75 1020.9
20210228195530 40 0.0 1.0 0.00 0.04 0.00 74 1021.0
20210228194521 40 0.0 3.0 0.00 0.04 0.00 75 1021.2
20210228193531 40 0.0 1.0 0.00 0.05 0.00 76 1021.0
20210228192647 40 0.0 1.0 0.00 0.06 0.00 75 1021.4
20210228191530 39 0.0 1.0 0.00 0.07 0.00 76 1021.4
20210228190524 39 113 1.0 2.0 0.00 0.08 0.00 76 1021.4
20210228185537 39 0.0 1.0 0.00 0.09 0.00 77 1021.7
20210228184531 39 0.0 3.0 0.00 0.10 0.00 77 1021.8
20210228183525 39 0.0 1.0 0.00 0.12 0.00 76 1022.3
20210228182610 39 0.0 1.0 0.00 0.13 0.00 77 1022.7
20210228181525 39 0.0 1.0 0.00 0.15 0.00 79 1023.0
20210228180522 38 0.0 1.0 0.00 0.17 0.00 78 1023.2
20210228175532 38 0.0 1.0 0.00 0.19 0.00 77 1023.4
20210228174533 38 0.0 2.0 0.00 0.20 0.00 79 1023.9
20210228173525 39 0.0 2.0 0.00 0.22 0.00 80 1024.0
20210228172632 38 248 1.0 3.0 0.00 0.25 0.00 78 1024.1
20210228171526 38 0.0 1.0 0.00 0.28 0.00 80 1024.3
20210228170524 38 248 1.0 2.0 0.00 0.31 0.00 81 1024.6
20210228165519 38 248 1.0 3.0 0.00 0.32 0.00 81 1024.1
20210228164524 37 248 1.0 3.0 0.00 0.32 0.00 82 1024.6
20210228163521 37 158 1.0 4.0 0.00 0.32 0.00 82 1025.2
20210228162718 37 0.0 2.0 0.00 0.32 0.00 83 1024.9
20210228161528 37 248 1.0 3.0 0.00 0.32 0.00 83 1025.1
20210228160535 36 0.0 2.0 0.00 0.32 0.00 85 1025.5
20210228155519 36 0.0 1.0 0.00 0.32 0.00 85 1025.6
20210228154522 36 0.0 2.0 0.00 0.32 0.00 86 1025.4
20210228153526 36 0.0 2.0 0.00 0.32 0.00 86 1025.6
20210228152754 36 0.0 1.0 0.00 0.32 0.00 86 1025.8
20210228151531 36 203 1.0 2.0 0.00 0.32 0.00 86 1025.3
20210228150527 35 0.0 1.0 0.00 0.32 0.00 87 1025.1
20210228145530 35 0.0 2.0 0.00 0.32 0.00 88 1025.1
20210228144542 35 0.0 2.0 0.00 0.32 0.00 88 1025.3
20210228143519 35 248 1.0 3.0 0.00 0.32 0.00 88 1025.5
20210228142723 34 248 1.0 2.0 0.00 0.32 0.00 89 1025.7
20210228141527 34 0.0 2.0 0.00 0.32 0.00 90 1025.4
20210228140524 34 0.0 2.0 0.00 0.32 0.00 89 1025.4
20210228135522 34 248 1.0 2.0 0.00 0.32 0.00 89 1025.1
20210228134519 33 0.0 1.0 0.00 0.32 0.00 89 1025.3
20210228133521 33 0.0 2.0 0.00 0.32 0.00 91 1025.3
20210228132620 33 0.0 1.0 0.00 0.32 0.00 90 1025.2
20210228131526 33 0.0 0.0 0.00 0.32 0.00 91 1025.1
20210228130521 32 0.0 1.0 0.00 0.32 0.00 92 1024.7
20210228125522 32 0.0 0.0 0.00 0.32 0.00 92 1024.7
20210228124519 32 0.0 0.0 0.00 0.32 0.00 93 1024.3
20210228123540 32 0.0 0.0 0.00 0.32 0.00 91 1024.1
20210228122725 32 0.0 0.0 0.00 0.32 0.00 91 1024.1
20210228121536 32 0.0 0.0 0.00 0.32 0.00 91 1023.8
20210228120526 31 0.0 0.0 0.00 0.32 0.00 92 1023.7
20210228115551 31 0.0 1.0 0.00 0.32 0.00 92 1023.6
20210228114524 31 0.0 0.0 0.00 0.32 0.00 92 1023.5
20210228113531 31 0.0 0.0 0.00 0.32 0.00 92 1023.6
20210228112629 31 0.0 1.0 0.00 0.32 0.00 92 1023.6
20210228111521 31 0.0 1.0 0.00 0.32 0.00 93 1023.8
20210228110522 31 0.0 1.0 0.00 0.32 0.00 94 1023.9
20210228105525 30 0.0 0.0 0.00 0.32 0.00 94 1023.8
20210228104536 30 0.0 0.0 0.00 0.32 0.00 94 1023.5
20210228103601 30 0.0 0.0 0.00 0.32 0.00 94 1023.1
20210228102836 30 0.0 0.0 0.00 0.32 0.00 94 1023.2
20210228101526 30 0.0 0.0 0.00 0.32 0.00 94 1023.2
20210228100539 30 0.0 0.0 0.00 0.32 0.00 94 1023.0
20210228095536 31 0.0 0.0 0.00 0.32 0.00 93 1022.9
20210228094523 31 0.0 0.0 0.00 0.32 0.00 93 1023.0
20210228093524 31 0.0 0.0 0.00 0.32 0.00 92 1022.8
20210228092600 32 0.0 0.0 0.00 0.32 0.00 91 1022.5
20210228091522 32 0.0 0.0 0.00 0.32 0.00 91 1022.1
20210228085533 32 0.0 0.0 0.00 0.32 0.00 91 1021.9
20210228084526 32 0.0 0.0 0.00 0.32 0.00 91 1021.6
20210228083528 32 0.0 1.0 0.00 0.32 0.00 91 1021.4
20210228082606 32 0.0 1.0 0.00 0.32 0.00 90 1021.4
20210228081530 33 0.0 1.0 0.00 0.32 0.00 90 1021.3
20210228080530 33 0.0 1.0 0.00 0.32 0.00 90 1021.3
20210228075522 33 0.0 4.0 0.00 0.32 0.00 90 1021.3
20210228074519 33 0.0 2.0 0.00 0.32 0.00 90 1021.3
20210228073521 33 0.0 1.0 0.00 0.32 0.00 90 1021.3
20210228072602 33 0.0 1.0 0.00 0.32 0.00 89 1021.0
20210228071531 34 248 1.0 4.0 0.00 0.32 0.00 89 1021.0
20210228070521 34 68 1.0 3.0 0.00 0.32 0.00 90 1021.1
20210228065524 34 270 1.0 4.0 0.00 0.32 0.00 90 1021.3
20210228064529 33 0.0 4.0 0.00 0.32 0.00 92 1021.3